FW6181 Weather Reports


time (UTC)temp
C
wind
direction
speed
KPH
gust
KPH
rain 1hr
cm
rain 24hr
cm
rain mn
cm
humidity
%
barometer
mb
20260510164507 24 131 0.0 4.8 0.00 2.92 0.03 96 1016.2
20260510163005 23 74 0.0 4.8 0.00 2.92 0.03 96 1016.3
20260510161503 23 191 0.0 1.6 0.00 2.92 0.03 96 1016.3
20260510160001 23 200 0.0 3.2 0.00 3.45 0.03 96 1016.3
20260510154603 23 152 0.0 0.0 0.00 3.45 0.03 97 1016.3
20260510153056 22 96 0.0 3.2 0.00 3.45 0.03 97 1016.3
20260510151554 22 149 0.0 0.0 0.00 3.45 0.03 98 1016.2
20260510150055 22 94 0.0 1.6 0.00 3.45 0.03 98 1016.3
20260510144606 21 217 0.0 0.0 0.00 4.34 0.03 98 1016.5
20260510143104 21 198 0.0 0.0 0.00 4.34 0.03 99 1016.5
20260510141545 20 49 0.0 0.0 0.00 4.34 0.03 99 1016.7
20260510140046 20 91 0.0 1.6 0.00 4.34 0.03 99 1016.6
20260510134558 20 180 0.0 0.0 0.00 4.95 0.03 99 1016.3
20260510133038 20 49 0.0 0.0 0.00 4.95 0.03 99 1016.0
20260510131536 19 191 0.0 0.0 0.00 4.95 0.03 99 1016.1
20260510130033 18 125 0.0 0.0 0.00 4.95 0.03 99 1015.8
20260510124532 18 179 0.0 0.0 0.00 7.16 0.03 99 1015.6
20260510123030 18 359 0.0 1.6 0.03 7.16 0.03 99 1015.5
20260510121529 18 135 0.0 0.0 0.03 7.16 0.03 99 1015.3
20260510120036 18 46 0.0 0.0 0.03 7.16 0.03 99 1014.9
20260510114523 18 27 0.0 0.0 0.03 7.16 0.03 99 1014.6
20260510113019 18 327 0.0 0.0 0.00 7.14 0.00 99 1014.3
20260510111517 18 327 0.0 0.0 0.00 7.14 0.00 99 1014.0
20260510110016 18 155 0.0 0.0 0.00 7.14 0.00 99 1013.5
20260510104514 18 88 0.0 0.0 0.00 7.14 0.00 99 1013.3
20260510103011 18 101 0.0 0.0 0.00 7.14 0.00 99 1013.2
20260510101509 18 16 0.0 0.0 0.00 7.14 0.00 99 1013.0
20260510100007 18 5 0.0 0.0 0.00 7.14 0.00 99 1012.8
20260510094521 18 95 0.0 0.0 0.00 7.14 0.00 99 1012.6
20260510093007 18 77 0.0 0.0 0.00 7.14 0.00 99 1012.7
20260510091506 18 119 0.0 0.0 0.00 7.14 0.00 99 1012.7
20260510090005 18 111 0.0 0.0 0.00 7.14 0.00 99 1012.8
20260510084504 18 110 0.0 1.6 0.00 7.54 0.00 99 1012.9
20260510083004 18 78 0.0 0.0 0.00 7.54 0.00 99 1012.8
20260510081502 18 89 0.0 0.0 0.00 7.54 0.00 99 1012.5
20260510080002 18 89 0.0 0.0 0.00 7.82 0.00 99 1012.3
20260510074603 18 89 0.0 0.0 0.00 7.82 0.00 99 1012.4
20260510073059 18 89 0.0 0.0 0.00 7.82 0.00 99 1012.3
20260510071559 18 89 0.0 0.0 0.00 7.82 0.00 99 1012.2
20260510070100 18 348 0.0 0.0 0.00 7.82 0.00 99 1012.3
20260510064555 18 5 0.0 0.0 0.00 7.90 0.00 99 1012.4
20260510063102 18 16 0.0 0.0 0.00 7.90 0.00 99 1012.6
20260510061554 18 78 0.0 0.0 0.00 7.90 0.00 99 1012.5
20260510060058 18 78 0.0 0.0 0.00 7.90 0.00 99 1012.6
20260510054557 18 78 0.0 0.0 0.00 9.35 0.00 99 1012.7
20260510053057 18 78 0.0 0.0 0.00 9.35 0.00 98 1012.5
20260510051631 18 78 0.0 0.0 0.00 9.35 0.00 98 1012.7
20260510050048 18 78 0.0 0.0 0.00 9.35 0.00 98 1012.7
20260510044549 19 78 0.0 0.0 0.00 9.35 9.35 99 1012.6
20260510043122 19 78 0.0 0.0 0.00 9.35 9.35 98 1012.5
20260510041551 19 78 0.0 0.0 0.00 9.35 9.35 99 1012.5
20260510040046 19 78 0.0 3.2 0.00 9.35 9.35 99 1012.1
20260510034553 19 124 0.0 0.0 0.00 9.35 9.35 98 1012.4
20260510033049 20 124 0.0 0.0 0.00 9.35 9.35 98 1013.2
20260510031618 20 124 0.0 0.0 0.00 9.35 9.35 98 1013.2
20260510030044 20 124 0.0 0.0 0.00 9.35 9.35 98 1013.1
20260510024546 20 124 0.0 0.0 0.00 9.35 9.35 98 1012.6
20260510023052 20 179 0.0 1.6 0.00 9.35 9.35 98 1012.5
20260510021545 20 197 0.0 0.0 0.00 9.35 9.35 98 1012.7
20260510020043 20 198 0.0 0.0 0.00 9.35 9.35 98 1012.9
20260510014542 20 200 0.0 0.0 0.10 9.35 9.35 98 1012.2
20260510013042 20 200 0.0 4.8 0.10 9.35 9.35 98 1011.5
20260510011555 20 206 0.0 6.4 0.13 9.35 9.35 98 1011.5
20260510010050 20 204 0.0 4.8 0.13 9.35 9.35 98 1011.6
20260510004539 20 226 0.0 0.0 0.03 9.25 9.25 98 1012.2
20260510003039 20 226 0.0 0.0 0.05 9.25 9.25 98 1012.1
20260510001539 20 143 0.0 3.2 0.03 9.22 9.22 98 1011.1
20260510000037 20 70 0.0 0.0 0.03 9.22 9.22 98 1011.5
20260509234537 20 203 0.0 0.0 0.05 9.25 9.22 98 1011.9
20260509233036 20 177 0.0 0.0 0.03 9.22 9.19 98 1012.0
20260509231537 20 177 0.0 0.0 0.05 9.22 9.19 98 1012.0
20260509230035 20 177 0.0 0.0 0.10 9.22 9.19 98 1012.0
20260509224535 19 177 0.0 0.0 0.10 9.42 9.17 98 1011.3
20260509223035 19 177 0.0 0.0 0.13 9.42 9.17 98 1011.1
20260509221538 19 177 0.0 1.6 0.10 9.40 9.14 98 1011.0
20260509220037 19 210 0.0 8.0 0.05 9.35 9.09 98 1011.6
20260509214534 19 196 0.0 0.0 0.03 9.47 9.07 98 1011.4
20260509213037 19 192 0.0 0.0 0.00 9.45 9.04 98 1011.3
20260509211601 19 192 0.0 0.0 0.03 9.45 9.04 98 1011.2
20260509210033 19 192 0.0 6.4 0.10 9.45 9.04 98 1010.0
20260509204531 19 163 0.0 0.0 0.25 9.83 9.04 98 1010.6
20260509203040 19 225 0.0 4.8 0.38 9.83 9.04 98 1010.5
20260509201531 19 134 0.0 6.4 0.53 9.80 9.02 98 1011.3
20260509200030 19 212 0.0 0.0 0.64 9.73 8.94 98 1012.1
20260509194530 19 222 0.0 0.0 0.58 9.73 8.76 98 1012.4
20260509193029 18 224 0.0 6.4 0.58 9.63 8.66 98 1011.9
20260509191528 18 211 3.2 9.7 0.48 9.45 8.48 98 1012.3
20260509190027 18 201 0.0 0.0 0.36 9.25 8.28 98 1012.3
20260509184526 18 209 0.0 0.0 0.33 9.14 8.18 98 1012.1
20260509183027 18 206 0.0 3.2 0.33 9.04 8.08 98 1012.7
20260509181528 18 139 0.0 4.8 0.33 8.97 8.00 98 1012.0
20260509180025 18 207 0.0 1.6 0.30 8.89 7.92 98 1011.6
20260509174526 18 199 0.0 6.4 0.58 8.79 7.82 98 1012.2
20260509173025 18 25 0.0 6.4 0.91 8.71 7.75 98 1012.0
20260509171524 18 198 0.0 11.3 1.12 8.64 7.67 98 1012.4
20260509170024 18 173 0.0 11.3 1.19 8.59 7.62 98 1012.4